Home   Weather   Kobe   Past weeks

Flag for Japan Past Weather in Kobe, Japan — Yesterday and Last 2 Weeks

64 °F

Scattered clouds.

Feels Like: 64 °F
Forecast: 65 / 79 °F
Wind: 6 mph from Northeast

Location: Osaka International Airport

Current Time: Oct 26, 2016 at 7:45:04 AM

Latest Report: Oct 26, 2016 at 7:00 AM

Visibility: N/A

Pressure: 30.01 "Hg

Humidity: 88%

Dew Point: 61 °F

Location of KobeLocation

Past Weather in Kobe — Graph


Kobe Temperature Yesterday

Maximum temperature yesterday: 66 °F (at 12:00 PM)
Minimum temperature yesterday: 52 °F (at 5:00 AM)
Average temperature yesterday: 63 °F

High & Low Weather Summary for the Past Weeks

High82 °F (Oct 18, 2:00 PM)100% (Oct 17, 5:00 AM)30.30 "Hg (Oct 17, 5:00 AM)
Low50 °F (Oct 15, 5:00 AM)27% (Oct 15, 5:00 PM)29.83 "Hg (Oct 23, 5:00 AM)
Average68 °F58%30.05 "Hg
* Reported Oct 11 6:00 AM — Oct 26 6:00 AM, Kobe, Weather by CustomWeather, © 2016

Note: Actual official high and low records may vary slightly from our data, if they occured in-between our weather recording intervals... More about our weather records


Kobe Weather History for the Previous 24 Hours

Scroll right to see more
Time TempWeatherWind HumidityBarometerVisibility
6:00 AM
Wed, Oct 26
64 °FPassing clouds.2 mph94%30.01 "HgN/A
5:00 AM63 °FPassing clouds.3 mph94%29.98 "HgN/A
8:00 PM
Tue, Oct 25
64 °FPartly cloudy.7 mph83%29.98 "HgN/A
7:00 PM64 °FSprinkles. Partly cloudy.9 mph83%29.95 "HgN/A
6:00 PM64 °FSprinkles. Partly cloudy.8 mph88%29.95 "HgN/A
5:00 PM64 °FBroken clouds.9 mph78%29.95 "HgN/A
4:00 PM66 °FPartly sunny.10 mph78%29.95 "HgN/A
3:00 PM66 °FScattered clouds.14 mph78%29.95 "HgN/A
2:00 PM64 °FBroken clouds.10 mph88%29.95 "HgN/A
1:04 PM63 °FLots of rain. Fog.8 mph94%29.98 "Hg3 mi
1:00 PM63 °FLots of rain. Fog.10 mph94%29.98 "Hg2 mi
12:00 PM66 °FSprinkles. Broken clouds.10 mph68%29.98 "HgN/A
11:00 AM64 °FScattered showers. Broken clouds.8 mph73%30.01 "HgN/A
10:00 AM63 °FSprinkles. Broken clouds.12 mph68%30.04 "HgN/A
9:00 AM63 °FBroken clouds.10 mph64%30.04 "HgN/A
8:00 AM61 °FBroken clouds.12 mph63%30.04 "HgN/A
7:00 AM59 °FBroken clouds.7 mph63%30.04 "HgN/A
Weather by CustomWeather, © 2016

See weather overviewHow to use our weather pages